Regional Weather Roundup
Issued by NWS Cleveland, OH

Home | Current Version | Previous Version | Graphics & Text | Print | Product List | Glossary On
Versions: 1 2 3 4 5 6 7 8 9 10 11 12 13 14 15 16 17 18 19 20 21 22 23 24 25 26 27 28 29 30 31 32 33 34 35 36 37 38 39 40 41 42 43 44 45 46 47 48 49 50
000
ASUS41 KCLE 260900
RWRCLE
OHIO REGIONAL WEATHER ROUNDUP
NATIONAL WEATHER SERVICE WILMINGTON, OH
500 AM EDT SUN MAR 26 2017

NOTE: "FAIR" INDICATES FEW OR NO CLOUDS BELOW 12,000 FEET WITH NO
SIGNIFICANT WEATHER AND/OR OBSTRUCTIONS TO VISIBILITY.

OHZ001>008-015>018-024>027-034-035-043-044-261000-
   NORTHWEST OHIO

CITY           SKY/WX    TMP DP  RH WIND       PRES   REMARKS
DEFIANCE       CLOUDY    39  36  89 NE9       30.01F
FINDLAY        CLOUDY    42  36  79 NE10      30.00F
TOLEDO EXPRESS CLOUDY    38  36  92 NE13      30.03F
TOLEDO EXEC    CLOUDY    39  37  92 NE7       30.03F
LIMA           CLOUDY    43  41  93 NE7       29.99F
$$

OHZ009>014-019>023-028>033-038-089-261000-
   NORTHEAST OHIO

CITY           SKY/WX    TMP DP  RH WIND       PRES   REMARKS
CLE-HOPKINS    CLOUDY    46  39  76 NE5       30.04F
CLE-LAKEFRONT  FAIR      40  37  89 NE12      30.02F
CUY CO. ARPT   NOT AVBL
LORAIN-ELYRIA  MOCLDY    42  37  82 E6        30.01F
ASHTABULA      MOCLDY    39  38  96 NE3       30.08F
AKRON-CANTON   FAIR      58  49  72 E8        30.03F
WOOSTER        NOT AVBL
MANSFIELD      FAIR      58  50  75 SE7       30.00F
YOUNGSTOWN     CLOUDY    56  49  77 E13       30.08F
$$

OHZ042-051>053-060>062-070>072-077>081-261000-
  SOUTHWEST OHIO

CITY           SKY/WX    TMP DP  RH WIND       PRES   REMARKS
CINC-COVINGTON CLOUDY    59  56  89 SW7       29.97F
CINC-LUNKEN    CLOUDY    60  56  86 SW7       29.99F
HAMILTON       MOCLDY    61  57  87 SW5       29.99F
DAYTON         NOT AVBL
WRIGHT-PAT AFB CLOUDY    57  51  79 CALM      29.98S
DAYTON GENERAL MOCLDY    61  54  77 SW5       29.97F
WILMINGTON     FAIR      57  49  74 SW3       29.98F
$$

OHZ036-037-039>041-045>050-054>059-063>069-073>076-082>088-261000-
  CENTRAL AND SOUTHEAST OHIO

CITY           SKY/WX    TMP DP  RH WIND       PRES   REMARKS
COLUMBUS       CLOUDY    63  49  60 SE7       29.97F
OSU AIRPORT    CLOUDY    62  50  64 SE9       29.97F
BOLTON FIELD   NOT AVBL
RICKENBACK AFB NOT AVBL
NEWARK         FAIR      53  48  83 CALM      29.98F
MARION         FAIR      60  50  69 SE9       29.98F
LANCASTER      FAIR      61  49  64 SE5       29.98F
ZANESVILLE     FAIR      62  48  60 SE9       30.01F
NEW PHILLY     FAIR      62  51  67 SE8       30.03F
$$




USA.gov is the U.S. government's official web portal to all federal, state and local government web resources and services.